Météo par heure à Kyshtym

Ce jour, 24 Juillet, Samedi

Heure Température Précipitation Vent Pression Humidité
00:00 +16°C° 0 mm 1 m/s 730 mmHg 88%
01:00 +15°C° 0 mm 1 m/s 730 mmHg 88%
02:00 +15°C° 0.1 mm 1 m/s 730 mmHg 88%
03:00 +15°C° 0.1 mm 1 m/s 730 mmHg 89%
04:00 +15°C° 0.1 mm 1 m/s 730 mmHg 90%
05:00 +16°C° 0 mm 1 m/s 730 mmHg 86%
06:00 +18°C° 0 mm 1 m/s 731 mmHg 82%
07:00 +18°C° 0 mm 1 m/s 731 mmHg 78%
08:00 +19°C° 0 mm 1 m/s 731 mmHg 72%
09:00 +20°C° 0 mm 2 m/s 731 mmHg 65%
10:00 +21°C° 0 mm 2 m/s 731 mmHg 58%
11:00 +23°C° 0 mm 2 m/s 731 mmHg 52%
12:00 +24°C° 0 mm 2 m/s 731 mmHg 46%
13:00 +26°C° 0 mm 2 m/s 731 mmHg 40%
14:00 +26°C° 0 mm 2 m/s 731 mmHg 40%
15:00 +26°C° 0 mm 2 m/s 731 mmHg 40%
16:00 +26°C° 0 mm 2 m/s 731 mmHg 40%
17:00 +24°C° 0 mm 2 m/s 731 mmHg 46%
18:00 +23°C° 0 mm 2 m/s 732 mmHg 52%
19:00 +20°C° 0 mm 2 m/s 732 mmHg 59%
20:00 +19°C° 0 mm 2 m/s 732 mmHg 62%
21:00 +18°C° 0 mm 2 m/s 732 mmHg 64%
22:00 +18°C° 0 mm 1 m/s 733 mmHg 67%
23:00 +16°C° 0 mm 2 m/s 733 mmHg 70%

Demain, 25 Juillet, Dimanche

Heure Température Précipitation Vent Pression Humidité
00:00 +16°C° 0 mm 2 m/s 733 mmHg 74%
01:00 +15°C° 0 mm 2 m/s 733 mmHg 78%
02:00 +15°C° 0 mm 2 m/s 733 mmHg 77%
03:00 +15°C° 0 mm 2 m/s 733 mmHg 76%
04:00 +15°C° 0 mm 2 m/s 734 mmHg 75%
05:00 +15°C° 0.2 mm 2 m/s 734 mmHg 79%
06:00 +16°C° 0.2 mm 3 m/s 735 mmHg 83%
07:00 +15°C° 0.2 mm 4 m/s 735 mmHg 88%
08:00 +17°C° 0 mm 4 m/s 735 mmHg 77%
09:00 +18°C° 0 mm 4 m/s 736 mmHg 67%
10:00 +19°C° 0 mm 5 m/s 736 mmHg 57%
11:00 +20°C° 0 mm 5 m/s 736 mmHg 51%
12:00 +21°C° 0 mm 5 m/s 737 mmHg 46%
13:00 +21°C° 0 mm 5 m/s 737 mmHg 40%
14:00 +21°C° 0 mm 5 m/s 737 mmHg 37%
15:00 +21°C° 0 mm 5 m/s 737 mmHg 34%
16:00 +21°C° 0 mm 5 m/s 738 mmHg 31%
17:00 +20°C° 0 mm 4 m/s 738 mmHg 36%
18:00 +19°C° 0 mm 4 m/s 739 mmHg 42%
19:00 +18°C° 0 mm 4 m/s 739 mmHg 47%
20:00 +16°C° 0 mm 3 m/s 739 mmHg 53%
21:00 +13°C° 0 mm 3 m/s 740 mmHg 59%
22:00 +12°C° 0 mm 2 m/s 740 mmHg 65%
23:00 +10°C° 0 mm 2 m/s 740 mmHg 66%

Après-demain, 26 Juillet, Lundi

Heure Température Précipitation Vent Pression Humidité
00:00 +10°C° 0 mm 2 m/s 741 mmHg 66%
01:00 +10°C° 0 mm 2 m/s 741 mmHg 67%
02:00 +10°C° 0 mm 2 m/s 741 mmHg 65%
03:00 +12°C° 0 mm 2 m/s 741 mmHg 63%
04:00 +13°C° 0 mm 2 m/s 741 mmHg 61%
05:00 +12°C° 0 mm 3 m/s 742 mmHg 60%
06:00 +13°C° 0 mm 3 m/s 742 mmHg 60%
07:00 +13°C° 0 mm 3 m/s 742 mmHg 59%
08:00 +14°C° 0 mm 4 m/s 742 mmHg 54%
09:00 +15°C° 0 mm 4 m/s 742 mmHg 48%
10:00 +17°C° 0 mm 4 m/s 742 mmHg 43%
11:00 +18°C° 0 mm 4 m/s 742 mmHg 42%
12:00 +17°C° 0 mm 5 m/s 742 mmHg 41%
13:00 +17°C° 0 mm 5 m/s 742 mmHg 40%
14:00 +18°C° 0 mm 4 m/s 742 mmHg 42%
15:00 +18°C° 0 mm 4 m/s 742 mmHg 45%
16:00 +18°C° 0 mm 3 m/s 742 mmHg 47%
17:00 +17°C° 0 mm 3 m/s 742 mmHg 50%
18:00 +17°C° 0 mm 3 m/s 741 mmHg 54%
19:00 +16°C° 0 mm 3 m/s 741 mmHg 57%
20:00 +15°C° 0 mm 2 m/s 741 mmHg 59%
21:00 +15°C° 0 mm 2 m/s 741 mmHg 61%
22:00 +14°C° 0 mm 2 m/s 741 mmHg 62%
23:00 +13°C° 0 mm 2 m/s 741 mmHg 67%

27 Juillet, Mardi

Heure Température Précipitation Vent Pression Humidité
00:00 +12°C° 0 mm 2 m/s 741 mmHg 72%
01:00 +10°C° 0 mm 2 m/s 741 mmHg 77%
02:00 +12°C° 0 mm 2 m/s 740 mmHg 74%
03:00 +12°C° 0 mm 3 m/s 740 mmHg 72%
04:00 +13°C° 0 mm 3 m/s 740 mmHg 69%
05:00 +14°C° 0 mm 3 m/s 740 mmHg 67%
06:00 +15°C° 0 mm 4 m/s 739 mmHg 64%
07:00 +17°C° 0 mm 4 m/s 739 mmHg 62%
08:00 +18°C° 0 mm 4 m/s 739 mmHg 57%
09:00 +19°C° 0 mm 5 m/s 739 mmHg 53%
10:00 +20°C° 0 mm 5 m/s 738 mmHg 49%
11:00 +20°C° 0 mm 5 m/s 738 mmHg 53%
12:00 +19°C° 0 mm 6 m/s 738 mmHg 57%
13:00 +17°C° 0 mm 6 m/s 738 mmHg 61%
14:00 +19°C° 0 mm 6 m/s 738 mmHg 63%
15:00 +19°C° 0 mm 5 m/s 737 mmHg 64%
16:00 +19°C° 0 mm 5 m/s 737 mmHg 66%
17:00 +18°C° 0.2 mm 4 m/s 737 mmHg 71%
18:00 +17°C° 0.2 mm 4 m/s 737 mmHg 77%
19:00 +17°C° 0.2 mm 4 m/s 736 mmHg 82%
20:00 +14°C° 0 mm 3 m/s 737 mmHg 85%
21:00 +13°C° 0 mm 3 m/s 737 mmHg 88%
22:00 +13°C° 0 mm 2 m/s 737 mmHg 91%
23:00 +12°C° 0 mm 2 m/s 737 mmHg 92%

28 Juillet, Mercredi

Heure Température Précipitation Vent Pression Humidité
00:00 +10°C° 0 mm 2 m/s 737 mmHg 93%
01:00 +9°C° 0 mm 2 m/s 737 mmHg 94%
02:00 +9°C° 0 mm 2 m/s 738 mmHg 93%
03:00 +8°C° 0 mm 2 m/s 738 mmHg 92%
04:00 +8°C° 0 mm 2 m/s 738 mmHg 91%
05:00 +9°C° 0 mm 3 m/s 738 mmHg 82%
06:00 +11°C° 0 mm 3 m/s 739 mmHg 73%
07:00 +12°C° 0 mm 3 m/s 739 mmHg 64%
08:00 +14°C° 0 mm 3 m/s 739 mmHg 57%
09:00 +15°C° 0 mm 4 m/s 739 mmHg 50%
10:00 +18°C° 0 mm 4 m/s 739 mmHg 43%
11:00 +19°C° 0 mm 3 m/s 739 mmHg 41%
12:00 +20°C° 0 mm 3 m/s 738 mmHg 38%
13:00 +21°C° 0 mm 3 m/s 738 mmHg 36%
14:00 +21°C° 0 mm 3 m/s 738 mmHg 35%
15:00 +21°C° 0 mm 4 m/s 738 mmHg 35%
16:00 +22°C° 0 mm 4 m/s 737 mmHg 35%
17:00 +20°C° 0 mm 3 m/s 737 mmHg 43%
18:00 +19°C° 0 mm 2 m/s 737 mmHg 51%
19:00 +17°C° 0 mm 2 m/s 737 mmHg 59%
20:00 +16°C° 0 mm 2 m/s 736 mmHg 63%
21:00 +14°C° 0 mm 2 m/s 736 mmHg 66%
22:00 +13°C° 0 mm 2 m/s 736 mmHg 70%
23:00 +13°C° 0 mm 2 m/s 736 mmHg 68%

29 Juillet, Jeudi

Heure Température Précipitation Vent Pression Humidité
00:00 +13°C° 0 mm 2 m/s 735 mmHg 66%
01:00 +12°C° 0 mm 3 m/s 735 mmHg 64%
02:00 +13°C° 0 mm 3 m/s 734 mmHg 62%
03:00 +13°C° 0 mm 4 m/s 734 mmHg 61%
04:00 +13°C° 0 mm 4 m/s 734 mmHg 60%
05:00 +15°C° 0 mm 5 m/s 734 mmHg 61%
06:00 +16°C° 0 mm 5 m/s 734 mmHg 61%
07:00 +17°C° 0 mm 5 m/s 734 mmHg 62%
08:00 +19°C° 0 mm 6 m/s 734 mmHg 59%
09:00 +20°C° 0 mm 6 m/s 733 mmHg 57%
10:00 +22°C° 0 mm 6 m/s 733 mmHg 55%
11:00 +23°C° 0 mm 6 m/s 733 mmHg 52%
12:00 +24°C° 0 mm 6 m/s 734 mmHg 49%
13:00 +26°C° 0 mm 7 m/s 734 mmHg 47%
14:00 +26°C° 0 mm 6 m/s 733 mmHg 45%
15:00 +26°C° 0 mm 6 m/s 733 mmHg 43%
16:00 +26°C° 0 mm 5 m/s 733 mmHg 41%
17:00 +25°C° 0 mm 5 m/s 734 mmHg 47%
18:00 +23°C° 0 mm 4 m/s 734 mmHg 53%
19:00 +21°C° 0 mm 3 m/s 734 mmHg 59%
20:00 +20°C° 0 mm 3 m/s 734 mmHg 66%
21:00 +18°C° 0 mm 2 m/s 734 mmHg 73%
22:00 +16°C° 0 mm 1 m/s 735 mmHg 80%
23:00 +15°C° 0 mm 1 m/s 735 mmHg 82%
Voir plus

Nous avons besoin de votre consentement

Meteoprog et ses fournisseurs de services peuvent stocker et accéder à des données personnelles telles que des cookies, des identifiants d'appareils ou d'autres technologies similaires sur votre appareil et traiter ces données pour personnaliser le contenu et les publicités, ainsi que pour fournir des fonctionnalités de médias sociaux et analyser le trafic.

  • Stocker et/ou accéder à des informations sur votre appareil

    Des cookies, des identifiants d'appareils ou d'autres informations peuvent être stockés ou accessibles sur votre appareil aux fins indiquées ci-dessus.

  • Annonces et contenus personnalisés, mesure des annonces et des contenus, connaissance de l'audience et développement de produits

    Les annonces et le contenu peuvent être personnalisés en fonction d'un profil. D'autres données peuvent être ajoutées pour mieux personnaliser les annonces et le contenu. Les performances des publicités et du contenu peuvent être mesurées. Il est possible d'obtenir des informations sur le public qui a vu les publicités et le contenu. Ces données peuvent être utilisées pour développer ou améliorer l'expérience de l'utilisateur, les systèmes et les logiciels.

En cliquant sur "J'accepte", vous autorisez l'utilisation de cookies, des identifiants d'appareils, des balises web ou d'autres technologies similaires. Vos paramètres peuvent être modifiés dans le navigateur de votre appareil.

Dans certains cas, des intérêts légitimes peuvent être invoqués plutôt qu'un consentement. Vous pouvez en savoir plus à ce sujet dans notre Politique de confidentialité et de cookies.